Location: Bussy-Saint-Georges
(48.8410°N, 2.7017°E)
Time: 22:12:04
(UTC+00:00)

CZ-4 R/B - Pass Details

Date: 18 October 2021
Orbit: 530 x 595 km, 97.8° (Epoch: 07 December)

Event Time Altitude Azimuth Distance (km) Brightness Sun altitude
Rises 18:03:09 0° 151° (SSE) 2,717 4.6 -12.2°
Reaches altitude 10° 18:05:18 10° 146° (SE) 1,838 3.7 -12.5°
Maximum altitude 18:09:08 49° 71° (ENE) 734 1.5 -13.2°
Drops below altitude 10° 18:13:05 10° 356° (N) 1,891 4.1 -13.8°
Sets 18:15:19 0° 351° (N) 2,805 5.1 -14.2°
